Regional Weather Roundup
Issued by NWS Memphis, TN

Home | Current Version | Previous Version | Text Only | Print | Product List | Glossary On
Versions: 1 2 3 4 5 6 7 8 9 10 11 12 13 14 15 16 17 18 19 20 21 22 23 24 25 26 27 28 29 30 31 32 33 34 35 36 37 38 39 40 41 42 43 44 45 46 47 48 49 50
000
ASUS44 KMEG 202310
RWRMEG
MEMPHIS CWA HOURLY WEATHER ROUNDUP
NATIONAL WEATHER SERVICE MEMPHIS TN
600 PM CDT SUN APR 20 2014

...WEST TENNESSEE...

CITY           SKY/WX    TMP DP  RH WIND       PRES   REMARKS
MEMPHIS INTL   MOSUNNY   78  48  34 S5        30.10S
NWS MEMPHIS      N/A     81 N/A N/A MISG        N/A
JACKSON        SUNNY     78  44  29 CALM      30.10F
LEXINGTON      SUNNY     79  41  25 SW3       30.10F
SILERTON         N/A     81  42  25 NE2         N/A
SAVANNAH       SUNNY     78  44  29 CALM      30.11F
DYERSBURG      SUNNY     79  45  29 SE9       30.11S
UNION CITY     SUNNY     77  45  31 CALM      30.10F
PARIS          PTSUNNY   77  44  30 SW5       30.11F


...EASTERN ARKANSAS...

CITY           SKY/WX    TMP DP  RH WIND       PRES   REMARKS
JONESBORO      PTSUNNY   77  46  33 W3        30.08F
WEST MEMPHIS   LGT RAIN  77  49  37 S9        30.08F
BATESVILLE     MOSUNNY   79  48  34 SE9       30.07S
NEWPORT        PTSUNNY   78  47  33 S8        30.09F
WALNUT RIDGE   CLOUDY    77  48  36 S10       30.09F
BLYTHEVILLE    SUNNY     77  44  30 SW8       30.10S
SEARCY         MOSUNNY   79  52  38 VRB7      30.09F
STUTTGART      SUNNY     81  48  32 SE8       30.09F
PINE BLUFF     MOSUNNY   77  55  46 SE7       30.06F
MONTICELLO     MOSUNNY   80  48  32 SE6       30.07F


...NORTH MISSISSIPPI...

CITY           SKY/WX    TMP DP  RH WIND       PRES   REMARKS
TUPELO         MOSUNNY   77  46  33 W5        30.11S
OXFORD         LGT RAIN  77  45  31 SW5       30.12F
OLIVE BRANCH   MOSUNNY   77  48  36 S8        30.11S
TUNICA         SUNNY     77  46  33 S7        30.10F
CLARKSDALE       N/A     77  50  38 CALM      30.11S
CORINTH        MOSUNNY   77  43  29 CALM      30.11S
GRENADA        SUNNY     77  46  33 E5        30.11F
GREENWOOD      SUNNY     79  47  32 E6        30.10F
COLUMBUS       MOSUNNY   75  48  38 W5        30.11F
STARKVILLE     FAIR      73  50  43 S3        30.12F
GOLDEN TRIANGL SUNNY     75  48  38 S6        30.14F


...SOUTHEAST MISSOURI...

CITY           SKY/WX    TMP DP  RH WIND       PRES   REMARKS
DONIPHAN         N/A     76  42  29 S7          N/A
WEST PLAINS    CLOUDY    75  46  35 CALM      30.09F
POPLAR BLUFF   MOSUNNY   77  44  30 S3        30.08S
CAPE GIRARDEAU MOSUNNY   77  46  33 S8        30.09F


...NORTHWEST ALABAMA...

CITY           SKY/WX    TMP DP  RH WIND       PRES   REMARKS
MUSCLE SHOALS  SUNNY     77  46  33 SE5       30.13S


...MIDDLE TENNESSEE...

CITY           SKY/WX    TMP DP  RH WIND       PRES   REMARKS
NASHVILLE      PTSUNNY   77  40  26 E7        30.11F
CLARKSVILLE    PTSUNNY   74  52  46 NE6       30.10F
DICKSON        PTSUNNY   79  36  21 CALM      30.11F
COLUMBIA       SUNNY     79  52  38 CALM      30.10F
LEWISBURG      PTSUNNY   79  45  29 CALM      30.11F


...WESTERN KENTUCKY...

CITY           SKY/WX    TMP DP  RH WIND       PRES   REMARKS
PADUCAH        MOSUNNY   79  44  28 SW9       30.10S
FORT CAMPBELL  PTSUNNY   75  37  25 E5        30.11S


...CENTRAL ARKANSAS...

CITY           SKY/WX    TMP DP  RH WIND       PRES   REMARKS
LITTLE ROCK    PTSUNNY   79  51  37 E7        30.07F


SKY/WX REPORTED AS FAIR MEANS FEW OR NO CLOUDS BELOW
12 THOUSAND FEET.




USA.gov is the U.S. government's official web portal to all federal, state and local government web resources and services.